TimeCST,TemperatureF,Dew PointF,Humidity,Sea Level PressureIn,VisibilityMPH,Wind Direction,Wind SpeedMPH,Gust SpeedMPH,PrecipitationIn,Events,Conditions,WindDirDegrees,DateUTC
12:15 AM,33.8,33.8,100,30.32,10.0,Calm,Calm,-,N/A,,Clear,0,2013-01-09 06:15:00
12:35 AM,33.8,33.8,100,30.32,7.0,Calm,Calm,-,N/A,,Clear,0,2013-01-09 06:35:00
12:55 AM,33.8,33.8,100,30.33,10.0,Calm,Calm,-,N/A,,Clear,0,2013-01-09 06:55:00
1:15 AM,33.8,33.8,100,30.34,7.0,Calm,Calm,-,N/A,,Scattered Clouds,0,2013-01-09 07:15:00
1:35 AM,35.6,35.6,100,30.33,7.0,Calm,Calm,-,N/A,,Mostly Cloudy,0,2013-01-09 07:35:00
1:55 AM,37.4,37.4,100,30.34,7.0,Calm,Calm,-,N/A,,Overcast,0,2013-01-09 07:55:00
2:15 AM,37.4,37.4,100,30.33,7.0,Calm,Calm,-,N/A,,Overcast,0,2013-01-09 08:15:00
2:35 AM,39.2,37.4,93,30.33,10.0,Calm,Calm,-,N/A,,Overcast,0,2013-01-09 08:35:00
2:55 AM,39.2,39.2,100,30.34,10.0,Calm,Calm,-,N/A,,Overcast,0,2013-01-09 08:55:00
3:15 AM,39.2,39.2,100,30.34,10.0,Calm,Calm,-,N/A,,Overcast,0,2013-01-09 09:15:00
3:35 AM,41.0,39.2,93,30.33,10.0,Calm,Calm,-,N/A,,Overcast,0,2013-01-09 09:35:00
3:55 AM,41.0,39.2,93,30.33,10.0,Calm,Calm,-,N/A,,Scattered Clouds,0,2013-01-09 09:55:00
4:15 AM,41.0,39.2,93,30.33,10.0,Calm,Calm,-,N/A,,Clear,0,2013-01-09 10:15:00
4:35 AM,41.0,39.2,93,30.33,10.0,Calm,Calm,-,N/A,,Scattered Clouds,0,2013-01-09 10:35:00
4:55 AM,42.8,41.0,93,30.34,10.0,Calm,Calm,-,N/A,,Scattered Clouds,0,2013-01-09 10:55:00
5:15 AM,42.8,41.0,93,30.34,1.0,Calm,Calm,-,N/A,,Scattered Clouds,0,2013-01-09 11:15:00
5:35 AM,44.6,39.2,81,30.34,10.0,Calm,Calm,-,N/A,,Scattered Clouds,0,2013-01-09 11:35:00
5:55 AM,44.6,39.2,81,30.35,10.0,Calm,Calm,-,N/A,,Scattered Clouds,0,2013-01-09 11:55:00
6:15 AM,44.6,39.2,81,30.35,10.0,Calm,Calm,-,N/A,,Scattered Clouds,0,2013-01-09 12:15:00
6:35 AM,44.6,41.0,87,30.36,10.0,Calm,Calm,-,N/A,,Scattered Clouds,0,2013-01-09 12:35:00
6:55 AM,46.4,42.8,87,30.37,10.0,Calm,Calm,-,N/A,,Scattered Clouds,0,2013-01-09 12:55:00
7:15 AM,46.4,42.8,87,30.38,10.0,Calm,Calm,-,N/A,,Overcast,0,2013-01-09 13:15:00
7:35 AM,46.4,42.8,87,30.38,10.0,Calm,Calm,-,N/A,,Overcast,0,2013-01-09 13:35:00
7:55 AM,51.8,44.6,76,30.39,10.0,Calm,Calm,-,N/A,,Overcast,0,2013-01-09 13:55:00
8:15 AM,48.2,44.6,87,30.40,10.0,Calm,Calm,-,N/A,,Drizzle,0,2013-01-09 14:15:00
8:35 AM,48.2,44.6,87,30.41,5.0,Calm,Calm,-,N/A,Rain,Rain,0,2013-01-09 14:35:00
8:55 AM,48.2,46.4,93,30.41,5.0,Calm,Calm,-,0.01,Rain,Rain,0,2013-01-09 14:55:00
9:15 AM,48.2,48.2,100,30.42,5.0,Calm,Calm,-,0.01,Rain,Rain,0,2013-01-09 15:15:00
9:35 AM,48.2,48.2,100,30.42,5.0,Calm,Calm,-,0.01,Rain,Rain,0,2013-01-09 15:35:00
9:55 AM,48.2,48.2,100,30.41,5.0,Calm,Calm,-,N/A,Rain,Light Rain,0,2013-01-09 15:55:00
10:15 AM,50.0,48.2,94,30.41,5.0,Calm,Calm,-,N/A,,Drizzle,0,2013-01-09 16:15:00
10:35 AM,50.0,48.2,94,30.41,7.0,Calm,Calm,-,N/A,Rain,Light Rain,0,2013-01-09 16:35:00
10:55 AM,51.8,50.0,94,30.41,3.0,Calm,Calm,-,N/A,Rain,Rain,0,2013-01-09 16:55:00
11:15 AM,51.8,50.0,94,30.41,4.0,Calm,Calm,-,N/A,Rain,Rain,0,2013-01-09 17:15:00
11:35 AM,51.8,50.0,94,30.42,5.0,NNW,3.5,-,N/A,Rain,Light Rain,330,2013-01-09 17:35:00
11:55 AM,51.8,50.0,94,30.41,2.5,Calm,Calm,-,0.02,Rain,Rain,0,2013-01-09 17:55:00
12:15 PM,51.8,50.0,94,30.41,2.5,North,-9999.0,-,0.02,Rain,Light Rain,0,2013-01-09 18:15:00
12:35 PM,51.8,50.0,94,30.41,2.0,Calm,Calm,-,0.02,Rain,Rain,0,2013-01-09 18:35:00
12:55 PM,51.8,50.0,94,30.41,2.5,North,-9999.0,-,N/A,Rain,Light Rain,0,2013-01-09 18:55:00
1:15 PM,51.8,51.8,100,30.39,5.0,Calm,Calm,-,N/A,,Drizzle,0,2013-01-09 19:15:00
1:35 PM,53.6,51.8,94,30.40,7.0,North,-9999.0,-,N/A,,Light Drizzle,0,2013-01-09 19:35:00
1:55 PM,53.6,53.6,100,30.40,10.0,Calm,Calm,-,N/A,,Overcast,0,2013-01-09 19:55:00
2:15 PM,53.6,53.6,100,30.40,10.0,Calm,Calm,-,N/A,,Mostly Cloudy,0,2013-01-09 20:15:00
2:35 PM,53.6,53.6,100,30.38,4.0,Calm,Calm,-,N/A,Rain,Light Rain,0,2013-01-09 20:35:00
2:55 PM,53.6,53.6,100,30.39,5.0,Calm,Calm,-,N/A,,Mostly Cloudy,0,2013-01-09 20:55:00
3:15 PM,53.6,51.8,94,30.40,10.0,Calm,Calm,-,N/A,,Overcast,0,2013-01-09 21:15:00
3:35 PM,51.8,51.8,100,30.40,10.0,Calm,Calm,-,N/A,,Overcast,0,2013-01-09 21:35:00
3:55 PM,51.8,51.8,100,30.41,10.0,North,-9999.0,-,N/A,,Overcast,0,2013-01-09 21:55:00
4:15 PM,51.8,51.8,100,30.40,10.0,Calm,Calm,-,N/A,,Overcast,0,2013-01-09 22:15:00
4:35 PM,51.8,51.8,100,30.40,10.0,Calm,Calm,-,N/A,,Overcast,0,2013-01-09 22:35:00
4:55 PM,51.8,51.8,100,30.41,7.0,Calm,Calm,-,N/A,,Overcast,0,2013-01-09 22:55:00
5:15 PM,51.8,50.0,94,30.42,5.0,Calm,Calm,-,N/A,,Overcast,0,2013-01-09 23:15:00
5:35 PM,51.8,50.0,94,30.43,5.0,Calm,Calm,-,N/A,,Overcast,0,2013-01-09 23:35:00
5:55 PM,51.8,50.0,94,30.44,4.0,Calm,Calm,-,N/A,,Overcast,0,2013-01-09 23:55:00
6:15 PM,51.8,50.0,94,30.44,4.0,Calm,Calm,-,N/A,,Overcast,0,2013-01-10 00:15:00
6:35 PM,51.8,50.0,94,30.45,2.5,Calm,Calm,-,N/A,Rain,Rain,0,2013-01-10 00:35:00
6:55 PM,51.8,50.0,94,30.46,1.8,Calm,Calm,-,N/A,Rain,Light Rain,0,2013-01-10 00:55:00
7:55 PM,50.0,50.0,100,30.46,1.5,Calm,Calm,-,N/A,,Overcast,0,2013-01-10 01:55:00
8:15 PM,51.8,50.0,94,30.47,1.8,Calm,Calm,-,N/A,,Overcast,0,2013-01-10 02:15:00
8:35 PM,50.0,48.2,94,30.47,1.2,Calm,Calm,-,N/A,,Overcast,0,2013-01-10 02:35:00
8:55 PM,50.0,48.2,94,30.48,1.5,Calm,Calm,-,N/A,,Overcast,0,2013-01-10 02:55:00
9:15 PM,51.8,50.0,94,30.48,1.8,Calm,Calm,-,N/A,,Overcast,0,2013-01-10 03:15:00
9:35 PM,51.8,50.0,94,30.48,1.2,Calm,Calm,-,N/A,,Overcast,0,2013-01-10 03:35:00
9:55 PM,51.8,50.0,94,30.48,1.5,Calm,Calm,-,N/A,,Overcast,0,2013-01-10 03:55:00
10:15 PM,50.0,48.2,94,30.47,1.0,Calm,Calm,-,N/A,,Overcast,0,2013-01-10 04:15:00
10:35 PM,50.0,48.2,94,30.47,1.0,Calm,Calm,-,N/A,,Overcast,0,2013-01-10 04:35:00
10:55 PM,50.0,48.2,94,30.47,1.0,Calm,Calm,-,N/A,,Overcast,0,2013-01-10 04:55:00
11:15 PM,50.0,48.2,94,30.48,1.2,Calm,Calm,-,N/A,,Overcast,0,2013-01-10 05:15:00
11:35 PM,50.0,48.2,94,30.48,1.0,Calm,Calm,-,N/A,,Overcast,0,2013-01-10 05:35:00
11:55 PM,50.0,48.2,94,30.48,0.8,Calm,Calm,-,N/A,,Overcast,0,2013-01-10 05:55:00